Hourly Data Report for September 10, 2017

All times are specified in Local Standard Time (LST). Add 1 hour to adjust for Daylight Saving Time where and when it is observed.

RANKIN INLET A
NUNAVUT

62°48'38.000" N
92°06'53.000" W
32.30 m
2303405
71083
YRT

Download Data

Hourly Data (September 2017)
Hourly Data Report for September 10, 2017
Temp Definition
°C
Dew Point Temp Definition
°C
Rel Hum Definition
%
Wind Dir Definition
10's deg

Wind Spd Definition
km/h
Visibility Definition
km
Stn Press Definition
kPa
Hmdx Definition


Wind Chill Definition


Weather Definition


TIME
00:00 Legend Double Dagger 1.2 -0.4 89 2 8 24.1 101.72     Clear
01:00 Legend Double Dagger 0.5 -1.2 89 36 7 24.1 101.73     LegendNANA
02:00 Legend Double Dagger 0.4 -1.0 90 2 7 24.1 101.79     LegendNANA
03:00 Legend Double Dagger 0.1 -1.0 92 1 7 24.1 101.77     Clear
04:00 Legend Double Dagger -0.3 -2.0 88 3 8 24.1 101.75   -3 LegendNANA
05:00 Legend Double Dagger 0.8 -1.1 87 5 8 24.1 101.74     LegendNANA
06:00 Legend Double Dagger 1.4 -1.1 83 7 9 24.1 101.78     Mainly Clear
07:00 Legend Double Dagger 2.2 -1.0 79 10 10 24.1 101.74     LegendNANA
08:00 Legend Double Dagger 2.9 -0.8 77 11 18 24.1 101.69     LegendNANA
09:00 Legend Double Dagger 3.8 1.1 82 10 16 24.1 101.65     Mostly Cloudy
10:00 Legend Double Dagger 5.2 1.7 78 9 19 24.1 101.58     LegendNANA
11:00 Legend Double Dagger 5.2 0.8 73 11 26 24.1 101.49     LegendNANA
12:00 Legend Double Dagger 5.3 1.2 75 11 27 24.1 101.39     Cloudy
13:00 Legend Double Dagger 5.3 1.9 79 11 24 24.1 101.31     LegendNANA
14:00 Legend Double Dagger 5.4 0.8 72 12 33 24.1 101.19     LegendNANA
15:00 Legend Double Dagger 5.2 1.3 76 11 36 24.1 101.10     Cloudy
16:00 Legend Double Dagger 5.1 1.3 76 12 34 24.1 100.96     LegendNANA
17:00 Legend Double Dagger 5.1 2.0 80 11 37 24.1 100.78     LegendNANA
18:00 Legend Double Dagger 5.1 2.5 83 10 37 19.3 100.69     Cloudy
19:00 Legend Double Dagger 4.9 3.2 89 11 45 12.9 100.51     Rain Showers
20:00 Legend Double Dagger 4.8 3.1 88 10 39 12.9 100.40     Rain
21:00 Legend Double Dagger 4.6 3.1 90 11 50 12.9 100.26     Rain
22:00 Legend Double Dagger 4.6 3.4 92 8 37 12.9 99.98     Rain
23:00 Legend Double Dagger 4.3 3.1 92 9 43 12.9 99.87     Rain

Notes on Data Quality.

Legend

  • E = Estimated
  • M = Missing
  • NA = Not Available
  • ‡ = Partner data that is not subject to review by the National Climate Archives
Date modified: